www.pogodaiklimat.ru

АРХИВ ПОГОДЫ в Лос-Анджелесе

Время (UTC), дата Ветер
(напр.,м/с)
 
Видим.   Явления Облачность Т
(С)
Тd
(С)
f
(%)
Тe
(С)
Тes
(С)
Комфортность

P
(гПа)

Po
(гПа)
Тmin
(С)
Tmax
(С)
R
(мм)
SD
(см)
20:53 16.08 З  6
{9} 
16 км    2/2 420 м  +26.1  +19.4  67  +32  +35  очень
душно 
1015.5  1011.2         
21:53 16.08 З  16 км    2/2 390 м  +26.0  +19.0  65  +31  +34  очень
душно 
1015.0  1010.6         
22:53 16.08 ЮЗ  16 км    5/2 420 м
[средняя] 
+25.0  +19.4  71  +30  +33  душно  1015.0  1010.6  +24.4  +27.2     
23:53 16.08 З  16 км    5/2 420 м
[средняя] 
+24.0  +19.0  74  +29  +30  душно  1015.3  1010.9         
00:05 17.08 З   16 км    8/8 360 м  +23.9  +19.4  76  +29  +29  душно    1010.9         
00:36 17.08 З  16 км    5/2 360 м
[средняя] 
+23.9  +19.4  76  +29  +29  душно    1010.9         
00:53 17.08 ЮЗ  16 км    2/2 360 м
[средняя] 
+23.3  +19.4  79  +30  +31  очень
душно 
1015.4  1010.9         
01:53 17.08 З  14 км    2/2 360 м
[средняя] 
+23.0  +20.0  83  +30  +30  очень
душно 
1015.8  1011.6         
02:42 17.08 З  16 км    8/8 330 м  +23.3  +20.0  82  +30  +30  очень
душно 
  1011.9         
02:53 17.08 З  16 км    8/8 330 м  +22.8  +20.0  84  +29  +29  очень
душно 
1016.3  1011.9         
03:53 17.08 З   16 км    8/8 390 м  +22.8  +19.4  81  +29  +29  очень
душно 
1016.7  1012.2         
04:53 17.08 ЮЗ  16 км    8/8 360 м  +22.8  +19.4  81  +29  +29  очень
душно 
1017.0  1012.6         
05:53 17.08 ЮЗ  16 км    8/8 360 м  +22.8  +20.0  84  +29  +29  очень
душно 
1017.3  1012.9         
06:53 17.08 СЗ  14 км    8/8 360 м  +23.0  +20.0  83  +30  +30  очень
душно 
1016.9  1012.6         
07:53 17.08 штиль  14 км    10/10 360 м  +23.0  +20.0  83  +30  +30  очень
душно 
1016.8  1012.2         
08:53 17.08 штиль  13 км    10/10 360 м  +23.9  +20.0  79  +29  +29  душно  1016.6  1012.2         
09:53 17.08 ЮЗ  13 км    10/10 360 м  +23.3  +20.0  82  +30  +30  очень
душно 
1016.4  1011.9         
10:53 17.08 З  13 км    10/10 330 м  +23.0  +20.0  83  +30  +30  очень
душно 
1016.6  1012.2  +22.8       
11:53 17.08 З  13 км    10/10 330 м  +23.3  +20.0  82  +30  +30  очень
душно 
1016.7  1012.2         
12:53 17.08 З  10 км  дымка  10/10 390 м  +23.0  +20.0  83  +30  +30  очень
душно 
1016.9  1012.6         
13:53 17.08 ЮЗ  8 км  мгла  10/10 390 м  +23.3  +20.0  82  +30  +30  очень
душно 
1017.3  1012.9         
14:53 17.08 З  8 км  мгла  10/10 450 м  +23.9  +20.0  79  +29  +29  душно  1017.8  1013.6         
15:53 17.08 З  11 км    10/10 450 м  +25.0  +20.0  74  +31  +31  очень
душно 
1017.9  1013.6         
16:43 17.08 З  11 км    5/5 570 м  +26.1  +20.6  72  +33  +36  очень
душно 
  1013.3         
16:53 17.08 З  10 км  мгла  5/5 570 м  +25.6  +20.0  71  +31  +35  очень
душно 
1017.7  1013.3         
17:53 17.08 З  13 км    5/5 540 м  +26.7  +20.0  67  +33  +36  очень
душно 
1017.4  1012.9         
18:53 17.08 З  14 км    2/2 600 м  +26.1  +20.0  69  +32  +36  очень
душно 
1017.1  1012.6         
19:44 17.08 З  14 км    8/8 0 м  +26.0  +20.0  70  +32  +33  очень
душно 
  1012.2         
19:53 17.08 З  14 км    8/8 0 м  +26.0  +20.0  70  +32  +33  очень
душно 
1016.7  1012.2         
20:53 17.08 ЮЗ  16 км    8/8 0 м  +26.0  +20.0  70  +32  +33  очень
душно 
1016.3  1011.9         
21:53 17.08 З  16 км    8/8 330 м  +25.0  +20.0  74  +31  +31  очень
душно 
1016.0  1011.6         
22:53 17.08 З  16 км    8/8 300 м  +24.0  +20.0  78  +29  +30  душно  1015.6  1011.2  +23.9       
23:53 17.08 З   16 км    8/8 300 м  +23.3  +20.0  82  +30  +31  очень
душно 
1015.5  1011.2         
23:59 17.08 З   16 км    10/10 270 м  +23.3  +19.4  79  +30  +30  очень
душно 
  1011.2         
00:07 18.08 ЮЗ  16 км    10/10 300 м  +22.8  +19.4  81  +29  +29  очень
душно 
  1011.2         
00:53 18.08 З   16 км    10/10 300 м  +22.8  +19.4  81  +29  +29  очень
душно 
1015.3  1010.9         
01:53 18.08 З  16 км    10/10 300 м  +22.8  +19.4  81  +29  +29  очень
душно 
1015.7  1011.2         
02:53 18.08 ЮЗ  16 км    10/10 300 м  +22.8  +20.0  84  +29  +29  очень
душно 
1016.2  1011.9         
03:53 18.08 ЮЗ  16 км    8/8 300 м  +22.2  +19.4  84  +28  +28  душно  1017.0  1012.6         
04:53 18.08 З  16 км    8/8 300 м  +22.2  +19.4  84  +28  +28  душно  1017.1  1012.9         
05:53 18.08 З  16 км    8/8 360 м  +22.8  +19.4  81  +29  +29  очень
душно 
1017.2  1012.9         
06:53 18.08 З  14 км    8/8 330 м  +22.8  +20.0  84  +29  +29  очень
душно 
1017.4  1012.9         
07:53 18.08 СЗ  16 км    8/8 390 м  +22.8  +19.4  81  +29  +29  очень
душно 
1016.9  1012.6         
08:53 18.08 СЗ  16 км    8/8 390 м  +22.2  +18.9  82  +28  +28  душно  1016.5  1012.2         
09:53 18.08 СЗ  16 км    2/2 390 м  +22.2  +18.9  82  +28  +28  душно  1016.1  1011.9         
10:53 18.08 штиль  16 км    5/5 420 м  +22.2  +19.4  84  +28  +28  душно  1016.1  1011.9         
11:53 18.08 ЮЗ  14 км    8/8 390 м  +22.2  +19.4  84  +28  +28  душно  1016.8  1012.2         
12:53 18.08 штиль  11 км    8/8 420 м  +22.8  +19.4  81  +29  +29  очень
душно 
1017.3  1012.9         

 

Местоположение метеостанции Los Angeles International Airport: широта 33.9381 долгота -118.3889 высота над уровнем моря 38 м.

В архиве по умолчанию представлена погода в Лос-Анджелесе за последние 1-2 суток. Обновление информации о фактической погоде в базе происходит ежечасно! Архивные данные за месяц целиком и за предыдущие месяцы Вы можете получить, выбрав интересующий диапазон дат из раскрывающегося списка и нажав кнопку "Ввод!".

Внимание! Архив погоды МЕТАР в базе сайта в настоящее время начинается c 1 января 2013 г. Нет смысла пытаться выбрать более раннюю дату.

Внимание! Время в таблицах - всемирное. Для получения местного времени необходимо прибавить поправку, которая в Лос-Анджелесе равна -8 ч.

Ветер - указаны скорость ветра в м/с и направление, откуда дует ветер: С - северный, СВ - северо-восточный, В - восточный, ЮВ - юго-восточный, Ю - южный, ЮЗ - юго-западный, З - западный, СЗ - северо-западный.
Видимость - горизонтальная дальность видимости в метрах или километрах. При видимости от 1 до 10 км при отсутствии осадков обычно наблюдается дымка, при ухудшении видимости до 1 км и менее - туман. В сухую погоду видимость может ухудшаться дымом, пылью или мглою.
Атмосферные явления - указаны явления, наблюдавшиеся в указанный момент времени.
Облачность - указаны через наклонную черту верхняя и нижняя облачность в баллах и высота нижней границы облаков в метрах. Внимание: облачность, как и прочие метеорологические величины в США измеряются автоматическими метеостанциями. Указанные значения в баллах носят условный характер и показывают процент времени, в течение которого, в среднем, лазерный луч высотомера отражался от облаков обратно.
T - Температура воздуха - температура, измеренная на высоте 2 м над землей.
Td - Температура точки росы - температура, при понижении до которой содержащийся в воздухе водяной пар достигнет насыщения.
f - Относительная влажность воздуха - влажноcть воздуха, измеренная на высоте 2 м над землей.
Te - Эффективная температура - температура, которую ощущает одетый по сезону человек в тени. Характеристика душности погоды. При расчете учитывается влияние влажности воздуха и скорости ветра на теплоощущения человека.
Tes - Эффективная температура на солнце - температура, которую ощущает человек, с поправкой на солнечный нагрев. Характеристика знойности погоды. Зависит от высоты солнца над горизонтом, облачности и скорости ветра. Ночью, в пасмурную погоду, а также при ветре 12 м/с и более поправка равна нулю.
P - Атмосферное давление - приведенное к уровню моря атмосферное давление.
Po - Атмосферное давление - измеренное на уровне метеостанции атмосферное давление.
Tmin - Минимальная температура - минимум температуры воздуха на высоте 2 м над землей.
Tmax - Максимальная температура - максимум температуры воздуха на высоте 2 м над землей.
R - Количество осадков - Количество выпавших осадков за 3 или 6 часов, мм.
SD - Снежный покров - Высота снежного покрова, см.